Regional Weather Roundup
Issued by NWS New Orleans/Baton Rouge, LA

Home | Current Version | Previous Version | Text Only | Print | Product List | Glossary On
Versions: 1 2 3 4 5 6 7 8 9 10 11 12 13 14 15 16 17 18 19 20 21 22 23 24 25 26 27 28 29 30 31 32 33 34 35 36 37 38 39 40 41 42 43 44 45 46 47 48 49 50
000
ASUS44 KLIX 272011
RWRLIX
NEW ORLEANS REGIONAL WEATHER ROUNDUP
NATIONAL WEATHER SERVICE NEW ORLEANS LA
300 PM CDT WED MAY 27 2015

NOTE: "FAIR" INDICATES FEW OR NO CLOUDS BELOW 12,000 FEET WITH NO
      SIGNIFICANT WEATHER AND/OR OBSTRUCTIONS TO VISIBILITY.
      SKY/WX - SKY CONDITION AND SIGNIFICANT WEATHER.
      TMP - AIR TEMPERATURE.     DP    - DEWPOINT TEMPERATURE.
      RH  - RELATIVE HUMIDITY.   PRES  - PRESSURE.
      HI  - HEAT INDEX.          WCI   - WIND CHILL INDEX.

*  THESE STATIONS ARE NOT NWS OR FAA STATIONS AND ARE NOT UNDER
   NWS QUALITY CONTROL.

LAZ038-040-048-061>063-065>067-069-272100-
SOUTHEAST LOUISIANA

CITY           SKY/WX    TMP DP  RH WIND       PRES   REMARKS
N.O. AUDUBON     N/A     73  70  91 MISG        N/A
N.O. INTL ARPT CLOUDY    73  66  78 SE5       30.15F
N.O. LAKEFRONT CLOUDY    77  64  64 CALM      30.16F
SLIDELL        CLOUDY    70  69  97 CALM      30.15F
BATON ROUGE    CLOUDY    70  67  90 E6        30.12F
BOOTHVILLE     CLOUDY    76  70  82 NW17G26   30.15F
BELLE CHASSE   CLOUDY    73  67  81 CALM      30.16F
BOGALUSA*      TSTM      72  67  85 CALM      30.15F
GALLIANO*      LGT RAIN  74  67  77 W9        30.17F
NEW ROADS*       N/A     72  67  85 NE8       30.12F
GONZALES*      LGT RAIN  69  69 100 SE3       30.12F
HAMMOND*       LGT RAIN  70  66  88 S7        30.16R
HOUMA*         PTSUNNY   66  66 100 SE7       30.17F FOG
PORT FOURCHON* PTCLDY    73  66  78 NW16G26   30.16F

$$

MSZ070-080>082-272100-
SOUTHERN MISSISSIPPI

CITY           SKY/WX    TMP DP  RH WIND       PRES   REMARKS
MCCOMB         CLOUDY    71  69  93 W5        30.12F
GULFPORT       CLOUDY    77  67  71 NW12G20   30.14R
BILOXI         CLOUDY    79  70  73 W7        30.13S
PASCAGOULA     CLOUDY    83  75  77 S7        30.13F
STENNIS ARPT*  PTSUNNY   70  64  83 MISG      30.17F

$$

COASTAL OBSERVATIONS
LAKE AND NEARSHORE STATIONS

STATION/POSITION TIME  TEMP    WIND        PRES    WAVE
                       AIR SEA DIR/SP/G            HT/PER
                 (UTC) (F)     (DEG/KT/KT) (MB)    (FT/S)
PASCAGOULA       1900   84     190/  9/ 11 1020.3
WAVELAND YACHT   1900   73 80  290/ 11/ 19 1021.9
GRAND ISLE       1900   73 82  340/ 17/ 23 1022.0
SOUTHWEST PASS   1900   89 76  300/  5/  6 1021.6
NEW CANAL        1900   73 80  340/  2/  5 1021.0
SHELL BEACH      1900   72 81  300/ 19/ 22 1021.5

OFFSHORE STATIONS

STATION/POSITION TIME  TEMP    WIND        PRES    WAVE
                       AIR SEA DIR/SP/G            HT/PER
                 (UTC) (F)     (DEG/KT/KT) (MB)    (FT/S)
64 S DAUPHIN ISL 1950   81 82  190/  4/  4 1020.3    3/ 6

$$



USA.gov is the U.S. government's official web portal to all federal, state and local government web resources and services.